User: anonymous   Login
Location: Sungai Jaoh
(2.9167°N, 113.9167°E)
Time: 12:13:17
(UTC+00:00)
Language:

ADEOS Rocket - Orbit

View from above orbital plane
View from above orbital plane
View from above satellite
View from above satellite

Ground track
Ground track

The orbit data is extracted from the following two-line orbital elements,

1 24279U 96046C   21125.90740994  .00000056  00000-0  11876-3 0  9999
2 24279  98.7259 272.1741 0298933 270.2283 259.0843 13.47182541214989
Epoch (UTC): 05 May 2021 21:46:40
Eccentricity: 0.0298933
inclination: 98.7259°
perigee height: 859 km
apogee height: 1305 km
right ascension of ascending node: 272.1741°
argument of perigee: 270.2283°
revolutions per day: 13.47182541
mean anomaly at epoch: 259.0843°
orbit number at epoch: 21498

The dashed part of the orbit path shows where the satellite is in the earth's shadow,  

DLR